User: anonymous   Login
Location: *
(51.4660°N, 0.3360°W)
Time: 18:18:15
(UTC+00:00)
Language:

Cosmos 2227 Rocket - Orbit

View from above orbital plane
View from above orbital plane
View from above satellite
View from above satellite

Ground track
Ground track

The orbit data is extracted from the following two-line orbital elements,

1 22285U 92093B   19325.69318573  .00000234  00000-0  14548-3 0  9998
2 22285  71.0196 150.4709 0005784 233.1702 126.8890 14.15039358388083
Epoch (UTC): 21 November 2019 16:38:11
Eccentricity: 0.0005784
inclination: 71.0196°
perigee height: 838 km
apogee height: 846 km
right ascension of ascending node: 150.4709°
argument of perigee: 233.1702°
revolutions per day: 14.15039358
mean anomaly at epoch: 126.8890°
orbit number at epoch: 38808

The dashed part of the orbit path shows where the satellite is in the earth's shadow,  

DLR